UPS1205 EFHK-EDDK

Flight info

Callsign UPS1205
Flight time 2h 16m
Altitude 33000
Route NUNTO4N NUNTO Y369 REKDO DCT KOSKA L990 KAL L87 ETRUS DCT GIROR M864 UNGAV DCT POVEL DCT PODER Z189 RUNER T858 KOPAG KOPAG1G
Aircraft B748/H-SDE3FGHIM1M2RWXY/LB1

Departure

Time 2026-05-05 06:04
Airport Helsinki Vantaa Airport (EFHK)

Arrival

Time 2026-05-05 08:20
Airport Cologne Bonn Airport (EDDK)
Time Latitude Longitude Altitude Speed Heading
2026-05-05 05:29 60.31006 24.97744 192 ft 0 kts 243°
2026-05-05 05:44 60.31012 24.97766 191 ft 1 kts 246°
2026-05-05 05:45 60.31014 24.97792 191 ft 1 kts 269°
2026-05-05 05:45 60.31012 24.97817 191 ft 1 kts 288°
2026-05-05 05:45 60.31007 24.97840 191 ft 1 kts 304°
2026-05-05 05:45 60.30998 24.97856 191 ft 1 kts 331°
2026-05-05 05:46 60.30986 24.97868 191 ft 1 kts 333°
2026-05-05 05:46 60.30983 24.97871 191 ft 1 kts 333°
2026-05-05 05:46 60.30978 24.97876 191 ft 0 kts 334°
2026-05-05 05:50 60.30979 24.97876 191 ft 0 kts 334°
2026-05-05 05:50 60.30985 24.97869 191 ft 1 kts 334°
2026-05-05 05:51 60.31002 24.97853 191 ft 2 kts 334°
2026-05-05 05:51 60.31015 24.97841 191 ft 5 kts 334°
2026-05-05 05:52 60.31053 24.97803 191 ft 6 kts 332°
2026-05-05 05:52 60.31092 24.97760 191 ft 2 kts 331°
2026-05-05 05:52 60.31099 24.97752 191 ft 1 kts 331°
2026-05-05 05:52 60.31117 24.97734 191 ft 3 kts 347°
2026-05-05 05:53 60.31131 24.97743 191 ft 2 kts 54°
2026-05-05 05:53 60.31137 24.97763 191 ft 0 kts 57°
2026-05-05 05:53 60.31138 24.97765 191 ft 0 kts 57°
2026-05-05 05:54 60.31140 24.97770 191 ft 0 kts 57°
2026-05-05 05:54 60.31143 24.97781 191 ft 2 kts 58°
2026-05-05 05:54 60.31150 24.97806 191 ft 2 kts 60°
2026-05-05 05:54 60.31166 24.97865 191 ft 6 kts 62°
2026-05-05 05:55 60.31202 24.97944 191 ft 9 kts 17°
2026-05-05 05:55 60.31274 24.97907 191 ft 12 kts 334°
2026-05-05 05:55 60.31360 24.97823 192 ft 15 kts 334°
2026-05-05 05:55 60.31459 24.97722 194 ft 16 kts 333°
2026-05-05 05:56 60.31569 24.97608 196 ft 18 kts 332°
2026-05-05 05:56 60.31684 24.97486 198 ft 18 kts 332°
2026-05-05 05:56 60.31804 24.97361 198 ft 19 kts 333°
2026-05-05 05:56 60.31937 24.97228 194 ft 23 kts 333°
2026-05-05 05:57 60.32073 24.97084 188 ft 21 kts 332°
2026-05-05 05:57 60.32203 24.96950 184 ft 20 kts 333°
2026-05-05 05:57 60.32318 24.96831 184 ft 19 kts 332°
2026-05-05 05:57 60.32423 24.96720 186 ft 16 kts 332°
2026-05-05 05:58 60.32523 24.96616 189 ft 15 kts 333°
2026-05-05 05:58 60.32612 24.96520 193 ft 13 kts 331°
2026-05-05 05:58 60.32692 24.96426 196 ft 13 kts 329°
2026-05-05 05:58 60.32772 24.96332 198 ft 14 kts 330°
2026-05-05 05:59 60.32861 24.96230 199 ft 15 kts 328°
2026-05-05 05:59 60.32914 24.96066 201 ft 11 kts 265°
2026-05-05 05:59 60.32932 24.95933 204 ft 10 kts 324°
2026-05-05 05:59 60.33003 24.95846 204 ft 13 kts 330°
2026-05-05 06:00 60.33087 24.95746 206 ft 14 kts 322°
2026-05-05 06:00 60.33160 24.95602 209 ft 14 kts 317°
2026-05-05 06:00 60.33200 24.95430 212 ft 14 kts 260°
2026-05-05 06:00 60.33142 24.95245 213 ft 16 kts 231°
2026-05-05 06:01 60.33109 24.95025 213 ft 18 kts 271°
2026-05-05 06:01 60.33114 24.94752 211 ft 19 kts 273°
2026-05-05 06:01 60.33118 24.94522 210 ft 11 kts 271°
2026-05-05 06:01 60.33101 24.94373 210 ft 9 kts 231°
2026-05-05 06:02 60.33094 24.94354 210 ft 0 kts 230°
2026-05-05 06:02 60.33083 24.94328 211 ft 13 kts 230°
2026-05-05 06:03 60.32910 24.93939 209 ft 62 kts 227°
2026-05-05 06:03 60.32496 24.93026 198 ft 114 kts 227°
2026-05-05 06:03 60.31847 24.91597 183 ft 159 kts 226°
2026-05-05 06:03 60.31055 24.89854 649 ft 171 kts 227°
2026-05-05 06:04 60.30491 24.87958 979 ft 169 kts 261°
2026-05-05 06:04 60.30500 24.85619 1659 ft 161 kts 266°
2026-05-05 06:04 60.30452 24.83281 2101 ft 165 kts 263°
2026-05-05 06:04 60.30400 24.80821 2608 ft 184 kts 266°
2026-05-05 06:05 60.30338 24.78158 3167 ft 196 kts 250°
2026-05-05 06:05 60.29794 24.75655 3768 ft 196 kts 245°
2026-05-05 06:05 60.29283 24.73414 4079 ft 166 kts 247°
2026-05-05 06:05 60.28811 24.71094 4537 ft 187 kts 249°
2026-05-05 06:06 60.28389 24.68745 4700 ft 180 kts 251°
2026-05-05 06:06 60.27988 24.66250 5030 ft 190 kts 250°
2026-05-05 06:06 60.27479 24.63692 5343 ft 200 kts 248°
2026-05-05 06:06 60.26937 24.61006 5655 ft 210 kts 248°
2026-05-05 06:07 60.26383 24.58255 5931 ft 220 kts 248°
2026-05-05 06:07 60.25793 24.55336 6220 ft 229 kts 248°
2026-05-05 06:07 60.25177 24.52299 6515 ft 238 kts 248°
2026-05-05 06:07 60.24568 24.49341 6676 ft 211 kts 244°
2026-05-05 06:08 60.23843 24.46707 6935 ft 215 kts 243°
2026-05-05 06:08 60.23109 24.43950 7232 ft 224 kts 243°
2026-05-05 06:08 60.22380 24.41201 7503 ft 229 kts 243°
2026-05-05 06:08 60.21599 24.38264 7797 ft 236 kts 243°
2026-05-05 06:09 60.20817 24.35331 8047 ft 238 kts 243°
2026-05-05 06:09 60.20045 24.32449 8367 ft 236 kts 243°
2026-05-05 06:09 60.19254 24.29492 8783 ft 238 kts 243°
2026-05-05 06:09 60.18487 24.26556 9179 ft 243 kts 244°
2026-05-05 06:10 60.17685 24.23461 9618 ft 257 kts 244°
2026-05-05 06:10 60.16848 24.20238 10027 ft 265 kts 244°
2026-05-05 06:10 60.16005 24.17015 10416 ft 264 kts 244°
2026-05-05 06:10 60.15155 24.13752 10943 ft 264 kts 244°
2026-05-05 06:11 60.14297 24.10479 11450 ft 266 kts 244°
2026-05-05 06:11 60.13430 24.07158 11969 ft 275 kts 244°
2026-05-05 06:11 60.12508 24.03646 12518 ft 285 kts 244°
2026-05-05 06:11 60.11509 23.99837 13076 ft 296 kts 245°
2026-05-05 06:12 60.10446 23.95791 13638 ft 307 kts 245°
2026-05-05 06:12 60.09335 23.91581 14198 ft 308 kts 245°
2026-05-05 06:12 60.08247 23.87456 14748 ft 312 kts 244°
2026-05-05 06:12 60.07230 23.83614 15252 ft 316 kts 245°
2026-05-05 06:13 60.06200 23.79728 15748 ft 315 kts 244°
2026-05-05 06:13 60.05158 23.75809 16249 ft 321 kts 244°
2026-05-05 06:13 60.04101 23.71829 16748 ft 322 kts 244°
2026-05-05 06:13 60.03027 23.67803 17258 ft 326 kts 244°
2026-05-05 06:14 60.01957 23.63793 17749 ft 326 kts 244°
2026-05-05 06:14 60.00881 23.59768 18237 ft 330 kts 244°
2026-05-05 06:14 59.99775 23.55636 18746 ft 333 kts 244°
2026-05-05 06:14 59.98603 23.51276 19270 ft 332 kts 244°
2026-05-05 06:15 59.97487 23.47122 19759 ft 337 kts 244°
2026-05-05 06:15 59.96369 23.42970 20260 ft 338 kts 244°
2026-05-05 06:15 59.95252 23.38834 20756 ft 341 kts 244°
2026-05-05 06:15 59.94131 23.34686 21240 ft 342 kts 243°
2026-05-05 06:16 59.93000 23.30506 21743 ft 343 kts 243°
2026-05-05 06:16 59.91864 23.26328 22238 ft 346 kts 244°
2026-05-05 06:16 59.90731 23.22153 22729 ft 349 kts 243°
2026-05-05 06:16 59.89561 23.17861 23235 ft 351 kts 244°
2026-05-05 06:17 59.88401 23.13606 23739 ft 354 kts 244°
2026-05-05 06:17 59.87229 23.09315 24251 ft 355 kts 243°
2026-05-05 06:17 59.86046 23.04998 24769 ft 357 kts 243°
2026-05-05 06:17 59.84861 23.00679 25279 ft 359 kts 243°
2026-05-05 06:18 59.83675 22.96367 25806 ft 361 kts 243°
2026-05-05 06:18 59.82478 22.92019 26331 ft 362 kts 244°
2026-05-05 06:18 59.81271 22.87642 26859 ft 363 kts 243°
2026-05-05 06:18 59.80054 22.83241 27387 ft 363 kts 243°
2026-05-05 06:19 59.78847 22.78880 27908 ft 364 kts 243°
2026-05-05 06:19 59.77644 22.74528 28428 ft 364 kts 243°
2026-05-05 06:19 59.76434 22.70132 28953 ft 363 kts 244°
2026-05-05 06:19 59.75231 22.65769 29472 ft 363 kts 244°
2026-05-05 06:20 59.74027 22.61402 29856 ft 366 kts 244°
2026-05-05 06:20 59.72788 22.56915 30112 ft 372 kts 243°
2026-05-05 06:20 59.71541 22.52411 30393 ft 377 kts 244°
2026-05-05 06:20 59.70267 22.47820 30667 ft 382 kts 244°
2026-05-05 06:21 59.68981 22.43184 30914 ft 387 kts 243°
2026-05-05 06:21 59.67669 22.38481 31152 ft 392 kts 244°
2026-05-05 06:21 59.66349 22.33749 31391 ft 396 kts 243°
2026-05-05 06:21 59.65006 22.28944 31645 ft 401 kts 243°
2026-05-05 06:22 59.63652 22.24113 31893 ft 405 kts 243°
2026-05-05 06:22 59.62279 22.19223 32141 ft 409 kts 243°
2026-05-05 06:22 59.60885 22.14270 32391 ft 413 kts 243°
2026-05-05 06:22 59.59498 22.09351 32628 ft 417 kts 243°
2026-05-05 06:23 59.56637 21.99233 32708 ft 423 kts 243°
2026-05-05 06:23 59.53756 21.89095 32709 ft 431 kts 243°
2026-05-05 06:24 59.50767 21.78624 32714 ft 434 kts 243°
2026-05-05 06:24 59.47786 21.68224 32705 ft 438 kts 243°
2026-05-05 06:25 59.44804 21.57852 32711 ft 441 kts 243°
2026-05-05 06:25 59.41785 21.47399 32713 ft 441 kts 243°
2026-05-05 06:26 59.38772 21.37027 32718 ft 441 kts 242°
2026-05-05 06:26 59.35750 21.26677 32730 ft 441 kts 242°
2026-05-05 06:27 59.31182 21.11106 32723 ft 441 kts 242°
2026-05-05 06:28 59.28129 21.00753 32736 ft 442 kts 242°
2026-05-05 06:28 59.25052 20.90360 32729 ft 442 kts 242°
2026-05-05 06:29 59.21975 20.80011 32730 ft 443 kts 242°
2026-05-05 06:29 59.18894 20.69682 32731 ft 443 kts 242°
2026-05-05 06:29 59.17085 20.64870 32697 ft 445 kts 230°
2026-05-05 06:30 59.14920 20.60562 32796 ft 450 kts 229°
2026-05-05 06:30 59.10473 20.52201 32753 ft 449 kts 227°
2026-05-05 06:31 59.05991 20.43828 32747 ft 449 kts 229°
2026-05-05 06:31 59.01554 20.35325 32745 ft 449 kts 229°
2026-05-05 06:32 58.97128 20.26860 32751 ft 450 kts 228°
2026-05-05 06:32 58.92668 20.18360 32755 ft 450 kts 228°
2026-05-05 06:33 58.88222 20.09916 32767 ft 452 kts 228°
2026-05-05 06:33 58.83742 20.01446 32776 ft 450 kts 228°
2026-05-05 06:34 58.79295 19.93063 32771 ft 452 kts 228°
2026-05-05 06:34 58.74779 19.84582 32770 ft 453 kts 228°
2026-05-05 06:35 58.70315 19.76231 32769 ft 452 kts 228°
2026-05-05 06:35 58.65806 19.67828 32775 ft 455 kts 228°
2026-05-05 06:36 58.61268 19.59403 32774 ft 454 kts 228°
2026-05-05 06:36 58.56759 19.51062 32771 ft 455 kts 228°
2026-05-05 06:37 58.52214 19.42688 32779 ft 457 kts 227°
2026-05-05 06:37 58.47663 19.34333 32771 ft 455 kts 227°
2026-05-05 06:38 58.43090 19.25971 32781 ft 457 kts 227°
2026-05-05 06:38 58.38435 19.17491 32790 ft 457 kts 227°
2026-05-05 06:39 58.33784 19.09045 32802 ft 459 kts 227°
2026-05-05 06:39 58.29153 19.00675 32798 ft 455 kts 227°
2026-05-05 06:40 58.24390 18.92096 32807 ft 457 kts 227°
2026-05-05 06:40 58.19521 18.83363 32804 ft 457 kts 227°
2026-05-05 06:41 58.14658 18.74672 32819 ft 457 kts 227°
2026-05-05 06:41 58.10040 18.66453 32822 ft 457 kts 227°
2026-05-05 06:42 58.05434 18.58285 32813 ft 456 kts 226°
2026-05-05 06:42 58.00802 18.50101 32804 ft 456 kts 226°
2026-05-05 06:43 57.96170 18.41946 32798 ft 456 kts 226°
2026-05-05 06:43 57.91550 18.33843 32812 ft 461 kts 226°
2026-05-05 06:44 57.86891 18.25703 32827 ft 461 kts 226°
2026-05-05 06:44 57.82225 18.17580 32834 ft 462 kts 226°
2026-05-05 06:45 57.77528 18.09432 32832 ft 463 kts 226°
2026-05-05 06:45 57.72830 18.01317 32834 ft 462 kts 226°
2026-05-05 06:46 57.68124 17.93213 32821 ft 459 kts 225°
2026-05-05 06:46 57.63415 17.85137 32823 ft 461 kts 225°
2026-05-05 06:47 57.58723 17.77117 32817 ft 461 kts 225°
2026-05-05 06:47 57.53985 17.69050 32818 ft 462 kts 226°
2026-05-05 06:48 57.49248 17.61012 32831 ft 465 kts 225°
2026-05-05 06:48 57.44475 17.52945 32834 ft 465 kts 225°
2026-05-05 06:49 57.39736 17.44964 32832 ft 466 kts 225°
2026-05-05 06:49 57.34949 17.36934 32832 ft 464 kts 225°
2026-05-05 06:50 57.30163 17.28929 32838 ft 465 kts 224°
2026-05-05 06:50 57.25356 17.20923 32838 ft 468 kts 224°
2026-05-05 06:51 57.20542 17.12936 32838 ft 467 kts 224°
2026-05-05 06:51 57.15752 17.05013 32840 ft 469 kts 224°
2026-05-05 06:52 57.10897 16.97014 32836 ft 467 kts 224°
2026-05-05 06:52 57.06073 16.89094 32837 ft 469 kts 224°
2026-05-05 06:53 57.01204 16.81127 32842 ft 472 kts 224°
2026-05-05 06:53 56.96336 16.73192 32845 ft 470 kts 224°
2026-05-05 06:54 56.91457 16.65264 32856 ft 468 kts 224°
2026-05-05 06:54 56.86633 16.57438 32864 ft 469 kts 224°
2026-05-05 06:55 56.81734 16.49554 32870 ft 468 kts 224°
2026-05-05 06:55 56.76876 16.41763 32871 ft 468 kts 224°
2026-05-05 06:56 56.72015 16.33984 32876 ft 468 kts 224°
2026-05-05 06:56 56.66748 16.27255 32887 ft 476 kts 204°
2026-05-05 06:57 56.60421 16.23517 32863 ft 478 kts 201°
2026-05-05 06:57 56.54029 16.20248 32872 ft 479 kts 199°
2026-05-05 06:58 56.47652 16.16942 32874 ft 477 kts 201°
2026-05-05 06:58 56.41353 16.13506 32873 ft 477 kts 201°
2026-05-05 06:59 56.35022 16.10053 32869 ft 475 kts 201°
2026-05-05 06:59 56.28692 16.06614 32869 ft 477 kts 201°
2026-05-05 07:00 56.22390 16.03206 32875 ft 477 kts 201°
2026-05-05 07:00 56.16080 15.99804 32875 ft 474 kts 201°
2026-05-05 07:01 56.09783 15.96422 32870 ft 473 kts 201°
2026-05-05 07:01 56.03451 15.93031 32881 ft 473 kts 201°
2026-05-05 07:02 55.97176 15.89683 32880 ft 472 kts 201°
2026-05-05 07:02 55.90849 15.86319 32884 ft 472 kts 201°
2026-05-05 07:03 55.84326 15.82861 32889 ft 473 kts 201°
2026-05-05 07:03 55.77817 15.79424 32893 ft 475 kts 201°
2026-05-05 07:04 55.71390 15.76041 32896 ft 473 kts 201°
2026-05-05 07:04 55.65023 15.72702 32890 ft 472 kts 201°
2026-05-05 07:05 55.58596 15.69342 32891 ft 471 kts 201°
2026-05-05 07:05 55.52118 15.65957 32891 ft 473 kts 202°
2026-05-05 07:05 55.49069 15.63434 32899 ft 462 kts 217°
2026-05-05 07:06 55.46619 15.59595 32911 ft 459 kts 232°
2026-05-05 07:06 55.43074 15.50044 32899 ft 460 kts 238°
2026-05-05 07:07 55.39669 15.40380 32909 ft 456 kts 240°
2026-05-05 07:07 55.36381 15.30457 32910 ft 454 kts 240°
2026-05-05 07:08 55.33099 15.20576 32904 ft 456 kts 240°
2026-05-05 07:08 55.29840 15.10817 32909 ft 458 kts 240°
2026-05-05 07:09 55.26635 15.01264 32904 ft 457 kts 240°
2026-05-05 07:09 55.23410 14.91700 32905 ft 458 kts 239°
2026-05-05 07:10 55.20185 14.82167 32905 ft 458 kts 240°
2026-05-05 07:10 55.16934 14.72601 32906 ft 458 kts 240°
2026-05-05 07:11 55.13688 14.63082 32914 ft 458 kts 239°
2026-05-05 07:11 55.10422 14.53546 32914 ft 460 kts 240°
2026-05-05 07:12 55.07154 14.44029 32914 ft 459 kts 239°
2026-05-05 07:12 55.03868 14.34505 32908 ft 458 kts 239°
2026-05-05 07:13 55.00588 14.25056 32919 ft 459 kts 239°
2026-05-05 07:13 54.97284 14.15567 32921 ft 459 kts 239°
2026-05-05 07:14 54.93988 14.06125 32921 ft 460 kts 239°
2026-05-05 07:14 54.90414 13.96972 32899 ft 460 kts 228°
2026-05-05 07:15 54.85949 13.89022 32905 ft 460 kts 226°
2026-05-05 07:15 54.81467 13.81089 32914 ft 462 kts 227°
2026-05-05 07:16 54.77008 13.73171 32915 ft 464 kts 227°
2026-05-05 07:16 54.72533 13.65237 32918 ft 464 kts 227°
2026-05-05 07:17 54.68016 13.57252 32913 ft 464 kts 227°
2026-05-05 07:17 54.63524 13.49329 32907 ft 464 kts 227°
2026-05-05 07:18 54.59032 13.41429 32907 ft 465 kts 227°
2026-05-05 07:18 54.54501 13.33485 32909 ft 465 kts 226°
2026-05-05 07:19 54.49997 13.25610 32909 ft 464 kts 226°
2026-05-05 07:19 54.45452 13.17688 32907 ft 466 kts 226°
2026-05-05 07:20 54.40937 13.09850 32905 ft 465 kts 226°
2026-05-05 07:20 54.36387 13.01973 32901 ft 466 kts 226°
2026-05-05 07:21 54.31835 12.94117 32896 ft 466 kts 226°
2026-05-05 07:21 54.27280 12.86282 32898 ft 466 kts 226°
2026-05-05 07:22 54.22703 12.78436 32895 ft 465 kts 226°
2026-05-05 07:22 54.18135 12.70632 32899 ft 466 kts 226°
2026-05-05 07:23 54.13564 12.62848 32897 ft 467 kts 226°
2026-05-05 07:23 54.08910 12.54950 32899 ft 467 kts 226°
2026-05-05 07:24 54.04341 12.47218 32899 ft 468 kts 226°
2026-05-05 07:24 53.99741 12.39462 32907 ft 467 kts 226°
2026-05-05 07:25 53.95108 12.31675 32907 ft 469 kts 225°
2026-05-05 07:25 53.90504 12.23966 32909 ft 467 kts 225°
2026-05-05 07:26 53.85868 12.16224 32917 ft 468 kts 225°
2026-05-05 07:26 53.81251 12.08541 32920 ft 467 kts 225°
2026-05-05 07:27 53.76620 12.00858 32916 ft 467 kts 225°
2026-05-05 07:27 53.71992 11.93206 32922 ft 469 kts 225°
2026-05-05 07:28 53.67345 11.85549 32910 ft 468 kts 225°
2026-05-05 07:28 53.62721 11.77955 32910 ft 469 kts 225°
2026-05-05 07:29 53.58062 11.70327 32902 ft 466 kts 225°
2026-05-05 07:29 53.53429 11.62767 32894 ft 466 kts 226°
2026-05-05 07:30 53.48751 11.55156 32897 ft 469 kts 225°
2026-05-05 07:30 53.41740 11.43797 32891 ft 468 kts 226°
2026-05-05 07:31 53.37060 11.36246 32896 ft 467 kts 226°
2026-05-05 07:31 53.32354 11.28675 32892 ft 469 kts 225°
2026-05-05 07:32 53.27668 11.21163 32897 ft 469 kts 225°
2026-05-05 07:32 53.22978 11.13666 32889 ft 468 kts 225°
2026-05-05 07:33 53.18290 11.06195 32892 ft 468 kts 225°
2026-05-05 07:33 53.13604 10.98757 32881 ft 468 kts 225°
2026-05-05 07:34 53.08908 10.91321 32888 ft 468 kts 225°
2026-05-05 07:34 53.04190 10.83876 32877 ft 469 kts 225°
2026-05-05 07:35 52.99467 10.76446 32875 ft 468 kts 225°
2026-05-05 07:35 52.94753 10.69056 32875 ft 469 kts 225°
2026-05-05 07:36 52.90030 10.61674 32881 ft 469 kts 225°
2026-05-05 07:36 52.85301 10.54303 32765 ft 471 kts 226°
2026-05-05 07:37 52.82916 10.50593 32409 ft 469 kts 225°
2026-05-05 07:37 52.80551 10.46928 32090 ft 464 kts 225°
2026-05-05 07:37 52.78210 10.43299 31766 ft 461 kts 225°
2026-05-05 07:37 52.75895 10.39718 31445 ft 459 kts 226°
2026-05-05 07:38 52.73565 10.36118 31116 ft 456 kts 226°
2026-05-05 07:38 52.71265 10.32573 30798 ft 453 kts 225°
2026-05-05 07:38 52.68966 10.29030 30478 ft 451 kts 225°
2026-05-05 07:38 52.66683 10.25523 30152 ft 449 kts 225°
2026-05-05 07:39 52.64438 10.22081 29837 ft 449 kts 225°
2026-05-05 07:39 52.62165 10.18596 29518 ft 446 kts 225°
2026-05-05 07:39 52.59901 10.15135 29223 ft 445 kts 225°
2026-05-05 07:39 52.57619 10.11648 28934 ft 445 kts 225°
2026-05-05 07:40 52.55361 10.08206 28621 ft 443 kts 225°
2026-05-05 07:40 52.53130 10.04806 28330 ft 442 kts 225°
2026-05-05 07:40 52.50881 10.01383 28031 ft 440 kts 225°
2026-05-05 07:40 52.48649 9.97994 27735 ft 439 kts 225°
2026-05-05 07:41 52.46385 9.94559 27428 ft 439 kts 225°
2026-05-05 07:41 52.44105 9.91106 27129 ft 437 kts 224°
2026-05-05 07:41 52.41884 9.87744 26835 ft 438 kts 224°
2026-05-05 07:41 52.39652 9.84375 26528 ft 437 kts 224°
2026-05-05 07:42 52.37403 9.80983 26229 ft 435 kts 224°
2026-05-05 07:42 52.35186 9.77643 25925 ft 434 kts 224°
2026-05-05 07:42 52.32983 9.74327 25625 ft 433 kts 224°
2026-05-05 07:42 52.30777 9.71014 25326 ft 432 kts 224°
2026-05-05 07:43 52.28571 9.67705 25026 ft 431 kts 224°
2026-05-05 07:43 52.26339 9.64360 24720 ft 430 kts 224°
2026-05-05 07:43 52.24148 9.61082 24425 ft 429 kts 224°
2026-05-05 07:43 52.21962 9.57817 24126 ft 428 kts 224°
2026-05-05 07:44 52.19776 9.54556 23833 ft 427 kts 224°
2026-05-05 07:44 52.17567 9.51264 23540 ft 427 kts 224°
2026-05-05 07:44 52.15406 9.48047 23252 ft 426 kts 224°
2026-05-05 07:44 52.13209 9.44784 22952 ft 424 kts 224°
2026-05-05 07:45 52.11049 9.41579 22665 ft 422 kts 224°
2026-05-05 07:45 52.08926 9.38437 22356 ft 410 kts 224°
2026-05-05 07:45 52.06852 9.35370 22065 ft 397 kts 224°
2026-05-05 07:45 52.04830 9.32383 21771 ft 388 kts 224°
2026-05-05 07:46 52.02864 9.29481 21514 ft 387 kts 224°
2026-05-05 07:46 52.00855 9.26516 21264 ft 388 kts 223°
2026-05-05 07:46 51.98883 9.23610 21018 ft 390 kts 223°
2026-05-05 07:46 51.96862 9.20638 20765 ft 389 kts 223°
2026-05-05 07:47 51.94874 9.17717 20515 ft 389 kts 223°
2026-05-05 07:47 51.92871 9.14777 20268 ft 387 kts 223°
2026-05-05 07:47 51.90893 9.11878 20046 ft 386 kts 223°
2026-05-05 07:47 51.88908 9.08971 19809 ft 386 kts 223°
2026-05-05 07:48 51.86901 9.06037 19563 ft 378 kts 223°
2026-05-05 07:48 51.84946 9.03185 19314 ft 371 kts 223°
2026-05-05 07:48 51.83008 9.00356 19076 ft 368 kts 223°
2026-05-05 07:48 51.81092 8.97562 18842 ft 368 kts 223°
2026-05-05 07:49 51.79158 8.94747 18612 ft 369 kts 223°
2026-05-05 07:49 51.77233 8.91952 18376 ft 367 kts 223°
2026-05-05 07:49 51.75326 8.89183 18150 ft 357 kts 223°
2026-05-05 07:49 51.73504 8.86541 17918 ft 346 kts 223°
2026-05-05 07:50 51.71714 8.83943 17671 ft 336 kts 223°
2026-05-05 07:50 51.69991 8.81450 17470 ft 332 kts 223°
2026-05-05 07:50 51.68262 8.78946 17272 ft 334 kts 223°
2026-05-05 07:50 51.66533 8.76448 17079 ft 335 kts 223°
2026-05-05 07:51 51.64808 8.73954 16884 ft 335 kts 223°
2026-05-05 07:51 51.63071 8.71446 16679 ft 334 kts 223°
2026-05-05 07:51 51.61370 8.69009 16444 ft 326 kts 218°
2026-05-05 07:51 51.59463 8.67175 16238 ft 320 kts 209°
2026-05-05 07:52 51.57516 8.65474 16053 ft 319 kts 210°
2026-05-05 07:52 51.55595 8.63751 15849 ft 315 kts 210°
2026-05-05 07:52 51.53700 8.62047 15634 ft 309 kts 210°
2026-05-05 07:52 51.51841 8.60376 15428 ft 305 kts 210°
2026-05-05 07:53 51.49979 8.58702 15224 ft 303 kts 210°
2026-05-05 07:53 51.48135 8.57047 15023 ft 303 kts 210°
2026-05-05 07:53 51.46246 8.55353 14817 ft 302 kts 210°
2026-05-05 07:53 51.44391 8.53693 14711 ft 300 kts 210°
2026-05-05 07:54 51.42504 8.52006 14471 ft 299 kts 210°
2026-05-05 07:54 51.40658 8.50357 14247 ft 297 kts 210°
2026-05-05 07:54 51.38850 8.48744 13989 ft 286 kts 210°
2026-05-05 07:54 51.37128 8.47209 13719 ft 275 kts 210°
2026-05-05 07:55 51.35486 8.45745 13467 ft 267 kts 210°
2026-05-05 07:55 51.33891 8.44323 13240 ft 266 kts 210°
2026-05-05 07:55 51.32274 8.42881 13021 ft 267 kts 210°
2026-05-05 07:55 51.30577 8.41369 12792 ft 268 kts 210°
2026-05-05 07:56 51.28840 8.39823 12554 ft 268 kts 210°
2026-05-05 07:56 51.27143 8.38194 12299 ft 267 kts 217°
2026-05-05 07:56 51.25760 8.36086 12058 ft 265 kts 232°
2026-05-05 07:56 51.24815 8.33518 11887 ft 249 kts 246°
2026-05-05 07:57 51.24148 8.30872 11649 ft 245 kts 246°
2026-05-05 07:57 51.23457 8.28193 11414 ft 247 kts 246°
2026-05-05 07:57 51.22743 8.25536 11201 ft 247 kts 243°
2026-05-05 07:57 51.21912 8.23101 11060 ft 247 kts 239°
2026-05-05 07:58 51.21056 8.20660 10912 ft 247 kts 240°
2026-05-05 07:58 51.20257 8.18145 10758 ft 247 kts 243°
2026-05-05 07:58 51.19487 8.15686 10589 ft 238 kts 241°
2026-05-05 07:58 51.18659 8.13430 10626 ft 235 kts 238°
2026-05-05 07:59 51.17804 8.11153 10476 ft 237 kts 238°
2026-05-05 07:59 51.16904 8.08742 10321 ft 237 kts 238°
2026-05-05 07:59 51.15987 8.06286 10157 ft 237 kts 238°
2026-05-05 07:59 51.15089 8.03884 9999 ft 238 kts 238°
2026-05-05 08:00 51.14191 8.01485 9836 ft 238 kts 238°
2026-05-05 08:00 51.13301 7.99113 9674 ft 237 kts 238°
2026-05-05 08:00 51.12407 7.96731 9526 ft 236 kts 238°
2026-05-05 08:00 51.11517 7.94363 9383 ft 235 kts 238°
2026-05-05 08:01 51.10622 7.91983 9242 ft 235 kts 238°
2026-05-05 08:01 51.09724 7.89599 9102 ft 235 kts 238°
2026-05-05 08:01 51.08832 7.87230 8966 ft 234 kts 238°
2026-05-05 08:01 51.07939 7.84862 8830 ft 234 kts 238°
2026-05-05 08:02 51.07054 7.82517 8700 ft 233 kts 238°
2026-05-05 08:02 51.06210 7.80107 8557 ft 234 kts 242°
2026-05-05 08:02 51.05417 7.77626 8425 ft 234 kts 242°
2026-05-05 08:02 51.04630 7.75184 8287 ft 233 kts 241°
2026-05-05 08:03 51.03838 7.72744 8162 ft 233 kts 242°
2026-05-05 08:03 51.03039 7.70280 8020 ft 232 kts 241°
2026-05-05 08:03 51.02243 7.67828 7881 ft 232 kts 242°
2026-05-05 08:03 51.01458 7.65407 7747 ft 232 kts 242°
2026-05-05 08:04 51.00675 7.62993 7610 ft 231 kts 241°
2026-05-05 08:04 50.99890 7.60574 7473 ft 231 kts 241°
2026-05-05 08:04 50.99109 7.58169 7336 ft 230 kts 241°
2026-05-05 08:04 50.98326 7.55762 7202 ft 231 kts 241°
2026-05-05 08:05 50.97542 7.53348 7068 ft 231 kts 242°
2026-05-05 08:05 50.96790 7.51034 6940 ft 230 kts 242°
2026-05-05 08:05 50.96032 7.48705 6825 ft 229 kts 241°
2026-05-05 08:05 50.95299 7.46454 6725 ft 229 kts 242°
2026-05-05 08:06 50.94657 7.44151 6577 ft 230 kts 254°
2026-05-05 08:06 50.94680 7.41609 6410 ft 233 kts 284°
2026-05-05 08:06 50.95493 7.39382 6310 ft 234 kts 306°
2026-05-05 08:06 50.96452 7.37277 6235 ft 234 kts 302°
2026-05-05 08:07 50.97330 7.35054 6131 ft 234 kts 301°
2026-05-05 08:07 50.98199 7.32840 6034 ft 234 kts 301°
2026-05-05 08:07 50.99071 7.30631 5929 ft 233 kts 301°
2026-05-05 08:07 50.99960 7.28375 5820 ft 233 kts 301°
2026-05-05 08:08 51.00838 7.26138 5717 ft 232 kts 301°
2026-05-05 08:08 51.01704 7.23931 5614 ft 232 kts 301°
2026-05-05 08:08 51.02575 7.21712 5514 ft 232 kts 301°
2026-05-05 08:08 51.03420 7.19551 5414 ft 231 kts 301°
2026-05-05 08:09 51.04263 7.17391 5313 ft 231 kts 301°
2026-05-05 08:09 51.05106 7.15232 5209 ft 226 kts 301°
2026-05-05 08:09 51.05930 7.13117 5065 ft 220 kts 301°
2026-05-05 08:09 51.06720 7.11084 4878 ft 218 kts 301°
2026-05-05 08:10 51.07499 7.09080 4617 ft 210 kts 301°
2026-05-05 08:10 51.08262 7.07115 4365 ft 206 kts 301°
2026-05-05 08:10 51.08999 7.05212 4140 ft 204 kts 301°
2026-05-05 08:10 51.09750 7.03271 3914 ft 205 kts 301°
2026-05-05 08:11 51.10758 7.01607 3643 ft 203 kts 321°
2026-05-05 08:11 51.11922 7.00139 3436 ft 202 kts 322°
2026-05-05 08:11 51.13056 6.98661 3200 ft 202 kts 320°
2026-05-05 08:11 51.14130 6.97086 2994 ft 201 kts 314°
2026-05-05 08:12 51.14637 6.95064 2933 ft 201 kts 270°
2026-05-05 08:12 51.14138 6.92993 3005 ft 202 kts 231°
2026-05-05 08:12 51.13238 6.91267 3025 ft 203 kts 230°
2026-05-05 08:12 51.12338 6.89546 2976 ft 199 kts 229°
2026-05-05 08:13 51.11457 6.87877 2984 ft 198 kts 229°
2026-05-05 08:13 51.10603 6.86144 2959 ft 199 kts 232°
2026-05-05 08:13 51.09604 6.84676 2988 ft 197 kts 213°
2026-05-05 08:13 51.08342 6.83823 2973 ft 195 kts 192°
2026-05-05 08:14 51.06993 6.83754 2978 ft 193 kts 171°
2026-05-05 08:14 51.05735 6.84466 2968 ft 186 kts 149°
2026-05-05 08:14 51.04795 6.85813 2934 ft 175 kts 125°
2026-05-05 08:14 51.04119 6.87591 3005 ft 174 kts 122°
2026-05-05 08:15 51.03425 6.89242 2979 ft 174 kts 124°
2026-05-05 08:15 51.02707 6.90855 2979 ft 175 kts 126°
2026-05-05 08:15 51.01837 6.92308 2992 ft 175 kts 134°
2026-05-05 08:15 51.00979 6.93753 2980 ft 175 kts 131°
2026-05-05 08:16 51.00149 6.95243 2971 ft 175 kts 134°
2026-05-05 08:16 50.99234 6.96595 2985 ft 175 kts 137°
2026-05-05 08:16 50.98336 6.97924 2963 ft 176 kts 136°
2026-05-05 08:16 50.97452 6.99236 2729 ft 175 kts 136°
2026-05-05 08:17 50.96558 7.00557 2508 ft 173 kts 136°
2026-05-05 08:17 50.95679 7.01846 2284 ft 172 kts 136°
2026-05-05 08:17 50.94799 7.03135 2059 ft 173 kts 136°
2026-05-05 08:17 50.93912 7.04430 1833 ft 174 kts 137°
2026-05-05 08:18 50.93025 7.05719 1592 ft 172 kts 137°
2026-05-05 08:18 50.92142 7.06997 1354 ft 171 kts 137°
2026-05-05 08:18 50.91257 7.08275 1126 ft 171 kts 137°
2026-05-05 08:18 50.90373 7.09556 896 ft 172 kts 137°
2026-05-05 08:19 50.89501 7.10817 662 ft 167 kts 137°
2026-05-05 08:19 50.88640 7.12064 442 ft 164 kts 137°
2026-05-05 08:19 50.87795 7.13285 260 ft 161 kts 137°
2026-05-05 08:19 50.87199 7.14147 261 ft 52 kts 137°
2026-05-05 08:20 50.87010 7.14425 267 ft 26 kts 136°
2026-05-05 08:20 50.86918 7.14535 269 ft 10 kts 194°
2026-05-05 08:20 50.86876 7.14451 267 ft 9 kts 271°
2026-05-05 08:20 50.86886 7.14322 265 ft 13 kts 277°
2026-05-05 08:21 50.86905 7.14161 264 ft 15 kts 282°
2026-05-05 08:21 50.86905 7.14042 261 ft 9 kts 232°
2026-05-05 08:21 50.86847 7.14040 262 ft 7 kts 144°
2026-05-05 08:21 50.86813 7.14064 263 ft 5 kts 190°
2026-05-05 08:22 50.86785 7.14018 263 ft 4 kts 231°
2026-05-05 08:22 50.86767 7.13989 263 ft 0 kts 226°
2026-05-05 08:22 50.86765 7.13985 263 ft 0 kts 227°
2026-05-05 08:22 50.86763 7.13983 263 ft 0 kts 227°